Temp
36 34 32 32 32 34 35 36 36 37 37 36 35 32 30 28 28 33 35 33 33 32 30 31 31 31 31 31 31 31 31 31 31 30 30 29 29 28 28 28 28 27 27 27 26 26 27 27 27 27 26 25 24 23 24 25 25 25 26 26 25 24 24 25 25 24 24 23 23 22 22 23 23 23 23 23 22 22 23 23 22 22 22 22 22 22
35 32 32 34 35 35 35 36 38 38 38 37 34 31 30 30 30 34 35 32 33 32 29 30 30 30 31 30 30 31 31 31 31 31 30 29 29 28 28 29 28 27 27 27 27 26 27 27 26 25 25 25 25 25 25 26 26 26 26 26 25 25 24 25 25 25 24 24 24 23 23 23 23 23 23 23 23 23 23 23 23 22 22 22 22 22
33 31 33 36 35 35 36 37 38 38 38 36 34 31 28 30 32 33 35 33 33 32 28 29 30 28 30 30 30 30 30 30 30 30 30 29 29 29 29 29 28 27 28 28 27 26 27 25 25 25 26 26 26 26 26 26 26 26 26 26 25 25 24 24 24 25 25 24 24 23 23 23 23 23 23 23 23 23 23 23 23 23 22 22 22 22
28 32 36 36 35 36 37 38 38 37 37 35 34 29 27 31 31 29 32 34 33 32 29 29 29 28 29 30 30 29 28 29 29 29 29 29 30 29 29 29 28 28 29 28 26 26 25 23 24 25 25 25 25 25 25 26 26 26 26 25 25 25 24 24 24 24 23 23 23 23 23 23 23 23 23 23 22 22 23 22 22 22 22 22 22 22
30 34 37 36 36 37 37 38 38 35 33 34 35 31 29 32 32 30 32 32 31 30 30 30 26 26 29 29 29 29 28 29 28 29 29 29 29 29 29 29 28 28 28 27 26 25 24 23 23 25 25 25 25 26 26 26 26 26 26 26 25 25 25 25 25 24 22 22 23 23 22 23 23 23 23 22 22 22 22 22 22 22 22 22 22 22
34 36 36 36 37 37 37 37 37 34 31 30 34 35 34 35 35 34 34 31 26 25 30 31 23 23 28 28 29 29 29 29 28 29 30 29 29 29 29 29 28 27 27 26 25 24 23 23 23 24 25 26 26 27 26 26 26 26 26 26 25 25 25 25 25 24 22 22 22 22 23 23 22 22 22 23 23 23 23 23 23 22 22 22 22 22
35 37 37 36 37 37 37 36 36 36 30 27 33 37 36 37 36 34 34 29 24 23 30 32 24 22 25 27 29 29 28 29 29 29 30 29 29 29 29 29 28 28 26 25 24 23 23 23 22 23 25 26 27 27 26 26 26 25 26 25 25 25 25 24 24 24 23 23 22 22 23 23 22 22 22 23 23 24 24 23 23 23 22 22 22 22
37 37 37 37 37 37 36 34 36 37 31 28 35 37 36 38 36 35 34 29 27 28 29 30 27 23 22 26 29 28 27 29 29 29 29 29 29 29 28 28 28 27 26 24 23 23 22 22 23 23 24 26 26 26 26 25 25 25 25 25 25 25 24 24 23 24 24 23 23 23 23 23 22 22 23 22 22 23 23 23 22 22 22 22 22 22
37 36 37 38 36 35 35 35 37 37 33 33 37 37 36 38 37 36 34 30 30 28 23 25 27 23 22 25 29 28 27 28 29 29 29 29 29 29 28 28 28 27 25 24 23 23 22 22 23 24 24 25 24 23 23 24 24 24 24 24 24 24 24 24 23 23 23 23 23 23 23 22 22 22 22 22 21 22 22 22 22 22 22 22 22 22
36 37 38 37 36 36 36 37 38 37 36 37 37 37 37 37 36 36 34 29 29 26 21 23 26 23 22 24 26 27 27 28 29 29 29 28 28 28 28 28 28 27 25 24 23 23 22 22 23 23 24 24 23 22 23 23 22 22 23 24 24 24 24 24 23 23 23 23 23 23 23 22 22 22 22 22 22 21 21 21 22 22 22 22 22 22
36 37 38 38 37 37 38 37 37 37 37 37 37 37 36 35 35 34 32 29 26 23 22 24 25 24 22 23 25 26 28 29 30 29 29 28 28 27 27 27 27 26 26 25 24 23 22 23 23 23 24 24 24 23 23 23 22 22 23 23 24 23 23 23 22 22 22 23 23 23 22 21 21 22 22 22 22 21 20 20 21 22 22 22 22 22
36 36 37 38 38 38 38 38 38 38 37 37 37 34 30 29 30 29 27 27 24 22 23 25 26 25 22 23 27 29 30 30 29 29 29 28 27 27 26 26 25 25 25 25 25 24 23 22 24 24 25 25 25 24 24 23 23 24 23 23 23 22 22 22 21 21 21 22 22 22 20 19 20 21 21 21 21 21 21 21 22 22 22 22 22 22
35 36 37 37 38 38 38 36 36 37 37 37 35 30 25 24 24 24 23 24 23 22 24 26 26 24 22 25 29 31 30 30 29 29 28 27 27 27 26 26 25 25 25 25 25 25 24 22 23 24 24 24 24 24 23 22 23 25 25 24 24 22 21 20 20 20 20 21 21 20 20 19 20 20 21 21 21 22 22 22 22 22 22 22 22 21
29 34 36 36 37 38 37 34 31 32 35 35 31 27 24 23 22 22 23 22 22 22 25 27 26 23 23 27 30 30 29 29 29 28 27 27 27 26 26 26 26 25 25 25 25 26 25 23 22 23 23 23 24 23 22 21 22 25 26 26 26 25 23 22 20 19 19 20 20 20 20 21 21 20 20 21 21 22 22 22 22 22 22 22 22 22
25 27 32 35 36 37 38 36 34 34 34 34 35 31 26 24 23 23 23 22 22 22 24 26 25 22 22 26 29 29 28 28 27 27 27 27 27 26 26 26 26 26 25 25 25 25 24 23 23 24 23 23 23 23 22 21 22 24 25 25 26 26 25 25 22 19 19 20 20 21 21 21 21 21 20 21 21 22 22 22 22 22 22 22 22 22
24 25 34 37 37 38 38 38 38 36 33 33 36 32 26 27 27 23 23 23 23 22 23 23 23 24 26 28 29 28 27 27 27 27 27 26 26 26 26 26 26 25 24 24 23 23 23 23 23 23 23 22 22 22 22 22 22 23 24 23 23 24 24 26 25 22 22 22 21 21 21 21 21 21 21 21 22 22 22 22 22 22 22 22 22 22
24 26 36 38 36 38 37 37 39 34 31 33 32 28 30 34 31 24 22 23 23 22 23 22 23 25 26 28 29 28 27 27 27 27 26 25 25 25 24 24 24 24 23 22 22 22 22 22 22 22 22 21 21 21 23 22 20 21 23 23 23 23 24 26 27 25 23 22 21 21 22 22 22 22 22 22 22 22 22 22 22 22 22 22 22 22
28 26 35 37 35 36 36 36 38 36 34 32 28 30 34 34 32 28 23 23 23 22 22 22 22 23 23 24 28 28 27 26 26 26 25 24 24 23 23 23 23 22 22 22 22 21 21 21 21 21 21 20 20 21 22 22 21 20 21 22 23 24 25 26 26 25 22 21 21 22 22 23 23 23 22 22 22 22 22 22 22 22 22 22 22 22
32 26 31 37 35 35 37 36 34 35 37 34 31 35 33 27 26 26 23 22 22 21 22 22 22 22 22 23 26 27 26 26 25 25 24 24 23 23 22 22 22 22 21 21 21 21 21 21 20 20 20 20 20 21 21 21 21 20 20 22 24 25 26 25 24 24 23 22 22 22 22 23 23 23 23 23 22 22 22 22 22 22 22 22 22 22
35 27 26 34 36 35 36 33 29 30 35 35 34 36 34 28 26 25 24 24 22 22 22 22 22 22 23 25 26 26 26 26 25 24 24 23 23 22 22 22 22 21 21 21 21 21 21 20 20 20 20 20 20 21 21 21 21 21 20 22 24 25 25 25 23 23 24 23 23 22 22 22 23 23 23 23 23 22 22 22 22 22 22 22 22 22
35 29 24 31 35 32 31 31 30 30 32 32 30 30 30 30 29 27 26 25 23 22 22 22 22 22 24 27 27 26 26 26 25 24 23 23 23 22 21 21 21 21 21 20 20 20 20 20 20 20 21 21 21 22 22 22 22 21 21 22 24 24 25 24 23 23 23 23 23 22 22 22 22 22 23 23 23 23 23 23 22 22 22 22 22 22
33 30 25 26 29 27 29 34 35 34 34 32 30 29 29 29 27 25 24 25 25 23 22 22 22 22 25 27 27 26 26 25 25 24 23 23 22 22 21 21 21 21 21 20 20 20 20 20 20 21 21 22 23 23 23 23 22 22 22 23 23 24 24 24 23 23 22 22 23 23 22 20 20 20 20 21 21 21 22 23 23 22 22 22 22 22
33 32 27 24 27 29 32 35 34 35 36 35 34 33 32 31 27 23 22 23 24 23 23 23 22 23 26 27 26 27 27 26 25 24 23 23 22 22 21 21 21 21 20 20 20 19 19 20 21 21 22 23 23 24 24 24 23 23 23 23 23 25 25 24 23 23 23 22 23 22 20 19 20 20 21 20 20 20 20 22 22 22 22 23 22 22
33 31 26 24 28 32 33 35 35 36 36 34 34 35 33 32 30 28 27 26 24 23 23 22 21 23 25 26 26 27 26 26 25 24 24 23 22 22 22 21 21 21 21 21 20 20 20 21 21 22 22 23 23 23 24 24 23 23 23 23 23 24 25 24 23 23 23 23 23 21 19 20 22 22 22 21 20 20 19 20 20 20 21 22 22 22
31 29 26 23 24 26 28 30 31 32 34 33 33 34 34 33 33 32 30 28 25 23 24 23 22 22 25 26 26 27 26 26 25 25 24 23 23 22 22 22 21 21 21 22 22 21 21 21 21 22 22 23 23 23 24 24 23 23 23 23 23 23 24 24 23 22 22 22 23 21 20 21 22 23 22 21 20 20 20 20 20 19 20 21 22 22
32 30 28 24 22 22 23 24 25 28 30 32 33 34 34 34 33 30 27 25 23 23 24 23 22 22 25 26 26 27 27 25 25 25 24 23 23 23 23 23 22 23 23 23 23 22 22 21 21 22 23 23 24 24 24 24 23 23 23 23 23 23 23 23 23 23 23 23 23 22 21 21 21 22 22 22 21 20 20 22 21 20 19 20 21 22
34 32 31 27 24 24 24 26 29 30 28 28 30 32 33 34 34 31 26 23 24 23 23 23 22 22 23 26 26 26 26 26 26 25 24 24 23 23 23 23 23 24 23 23 24 23 23 22 22 23 24 24 24 24 24 24 24 24 23 23 23 23 23 23 23 23 23 23 23 23 23 22 22 22 22 22 22 21 21 22 21 20 19 19 20 21
33 29 31 30 28 29 29 30 33 32 29 28 29 30 32 33 33 30 26 25 26 24 22 23 23 22 23 26 26 26 26 26 26 25 24 24 23 23 23 23 23 24 23 24 24 23 24 24 23 23 24 24 24 24 24 24 24 24 23 23 23 23 23 23 23 23 23 23 23 22 22 22 23 23 22 22 22 21 21 21 21 21 20 20 20 21
32 28 30 31 29 31 33 32 32 32 31 31 30 29 30 30 30 28 26 28 28 25 23 24 24 23 24 26 26 26 26 26 26 26 25 24 24 23 23 23 24 24 24 24 24 24 25 25 23 23 24 24 24 24 24 24 24 24 24 23 23 23 23 23 23 23 23 23 23 23 22 22 22 22 22 22 22 22 22 22 21 21 21 21 21 21
31 28 30 31 29 30 32 32 33 32 30 29 29 29 29 28 28 27 26 28 28 26 25 25 24 25 26 26 26 26 26 26 26 27 26 25 24 24 24 24 24 24 25 25 25 25 25 24 22 23 24 24 24 24 24 24 24 24 24 24 23 23 23 23 23 23 23 23 23 23 22 22 22 22 22 22 22 21 21 22 22 22 22 21 21 21
30 28 31 31 27 27 31 32 32 31 29 27 27 29 29 28 28 27 26 27 27 25 25 25 24 25 26 26 26 26 26 27 26 26 26 25 24 24 24 24 24 24 25 25 25 25 25 23 22 22 24 24 24 24 24 24 24 24 24 24 23 23 23 23 23 22 22 22 22 22 22 22 22 22 22 22 22 21 21 21 21 21 22 22 21 21
32 29 30 30 24 24 29 31 30 30 29 26 25 27 28 26 26 26 26 27 26 24 24 24 23 24 25 25 25 26 26 26 26 26 26 26 25 25 25 24 25 25 25 26 25 25 25 24 21 22 24 24 24 25 25 24 24 24 24 24 23 23 23 23 23 22 22 22 22 22 22 22 22 22 22 22 22 21 21 21 21 21 21 21 21 21
33 30 29 27 23 23 28 30 29 28 25 23 24 27 27 26 26 25 25 26 26 25 24 23 23 24 25 25 25 25 26 26 26 26 26 25 25 26 26 26 26 26 26 25 25 24 24 23 22 24 25 24 25 24 24 24 24 24 24 23 23 23 23 23 23 22 22 22 22 21 21 21 21 21 21 22 21 21 21 21 21 21 21 21 21 21
32 31 29 27 24 23 26 29 27 24 21 22 27 28 27 26 26 25 24 24 25 25 24 24 24 25 25 25 25 25 25 25 25 25 25 25 26 26 26 26 26 26 25 25 24 23 23 23 24 25 25 24 24 24 24 23 23 23 23 23 23 23 22 22 22 22 22 22 21 21 20 20 20 21 21 21 21 21 21 21 21 21 21 21 21 21
32 31 30 28 25 23 25 26 23 21 22 26 29 28 27 27 26 25 24 24 25 25 25 24 24 24 24 25 25 25 25 25 25 26 26 26 26 26 25 25 26 25 24 24 24 23 23 24 25 24 24 24 23 23 23 23 23 23 23 22 22 22 22 22 22 21 21 21 21 20 20 20 20 20 20 20 20 21 21 21 21 21 21 21 21 21
32 31 29 28 26 24 24 23 22 22 25 27 28 28 27 27 26 25 23 23 24 25 24 24 24 24 24 25 25 25 25 25 26 26 25 25 25 26 25 25 26 25 23 24 24 23 24 25 24 23 23 23 23 23 23 22 22 22 22 22 22 22 21 21 21 21 21 21 20 20 20 20 20 19 19 20 20 20 20 20 20 21 21 21 21 21
32 31 29 26 25 24 22 22 22 23 24 25 25 27 27 26 26 24 22 23 24 24 24 24 23 24 24 24 24 25 25 26 25 25 24 25 25 25 25 25 25 24 23 23 24 24 24 24 23 23 23 23 23 23 22 22 22 22 22 22 21 21 21 21 21 21 20 20 20 20 20 20 19 19 19 19 19 19 20 20 20 20 21 21 21 21
32 31 29 26 24 25 23 22 22 21 21 23 24 26 27 26 26 25 23 22 24 24 24 24 23 23 23 24 24 24 25 24 23 23 24 24 24 24 24 24 24 24 24 24 24 23 23 23 23 23 23 22 22 22 22 22 22 22 22 21 21 21 21 21 20 20 20 20 20 20 20 20 20 19 19 19 19 19 19 20 20 20 20 21 21 20
31 30 30 27 24 24 23 21 21 21 21 23 25 25 26 26 26 26 23 21 23 24 24 24 23 23 23 23 23 23 23 22 22 23 24 24 24 24 24 24 24 24 24 24 23 23 23 23 23 23 22 22 22 22 22 22 21 21 21 21 21 20 20 20 20 20 20 20 20 20 20 20 19 19 19 19 19 19 19 19 19 20 20 20 20 21
30 29 29 26 23 22 22 21 21 21 22 24 25 24 24 25 27 25 21 20 23 23 23 23 23 23 23 22 22 22 22 22 22 23 23 23 23 23 23 23 23 23 24 23 23 23 23 23 23 23 22 22 22 22 21 21 21 21 20 20 20 20 20 20 20 20 20 20 20 20 19 19 19 19 19 19 19 19 19 19 19 19 20 20 20 20
27 27 26 24 22 22 22 21 21 22 24 25 24 23 24 25 25 22 20 21 23 23 22 23 22 22 23 23 22 22 22 22 23 23 23 23 23 23 23 23 23 23 23 23 23 23 23 23 23 22 22 22 21 21 21 21 21 20 20 20 20 20 20 20 20 20 19 19 19 19 19 19 19 19 19 18 18 18 18 18 19 19 19 19 20 20
25 25 24 23 23 22 22 21 21 22 23 24 24 24 24 24 22 20 21 23 23 22 22 23 22 22 23 23 23 22 22 23 23 23 23 23 23 22 22 22 23 23 23 23 23 23 22 22 22 22 22 21 21 20 20 20 20 20 20 20 19 20 20 19 19 19 19 19 19 19 18 18 18 18 18 18 18 18 18 18 18 18 19 19 19 19
24 23 22 23 23 22 22 21 20 21 22 23 24 24 23 22 22 22 22 23 23 22 23 22 22 23 23 23 23 23 23 23 23 23 23 23 22 22 22 22 22 22 22 22 22 22 21 21 21 21 21 21 20 20 20 20 20 20 19 19 19 19 19 19 18 18 18 18 18 18 18 18 18 18 18 18 18 18 18 17 18 18 18 18 19 19
25 24 22 23 23 22 20 20 21 21 22 23 23 23 22 22 23 23 22 22 23 23 23 22 23 23 23 23 23 23 23 23 23 23 23 23 22 21 21 22 22 21 21 21 21 21 21 21 21 20 20 20 20 20 20 20 19 19 19 19 19 18 18 18 18 18 18 17 17 17 17 17 17 17 17 17 17 17 17 17 17 17 18 18 18 18
25 25 23 22 22 22 21 21 22 22 22 23 22 22 22 22 23 22 22 22 22 22 22 22 22 22 22 22 22 22 22 22 23 23 23 23 22 21 21 21 20 20 20 20 20 20 20 20 20 19 19 20 19 19 19 19 19 18 18 18 18 18 18 17 17 17 17 17 17 17 17 17 17 17 17 17 17 17 17 17 17 17 17 17 17 18
25 25 24 23 22 22 22 22 22 22 22 22 22 22 22 22 22 22 22 22 22 22 22 22 22 22 22 22 22 22 22 22 22 22 22 22 21 20 19 20 19 19 19 19 20 20 19 19 19 19 19 19 19 19 19 18 18 18 17 17 17 17 17 17 17 17 16 16 16 16 16 16 16 16 16 16 16 16 16 16 16 16 16 16 17 17
25 24 24 23 22 22 21 22 22 22 22 22 22 22 22 22 22 22 22 22 22 22 22 22 22 22 22 22 22 22 21 21 21 20 20 20 19 19 19 19 18 19 19 19 19 19 19 19 18 18 18 18 18 18 17 17 17 17 17 17 17 17 17 16 16 16 16 16 16 16 16 16 16 16 16 16 16 16 16 16 16 16 16 16 16 17
24 24 23 22 22 21 21 22 22 22 21 22 22 22 22 23 23 22 22 21 21 21 21 21 22 22 22 22 22 21 20 20 19 20 20 19 18 18 18 18 18 18 18 18 19 19 18 18 18 18 18 17 17 17 16 16 16 16 16 16 16 16 16 16 16 16 16 16 15 15 15 15 15 15 15 15 15 15 15 15 16 15 15 16 16 16
24 24 23 22 22 21 22 22 22 21 21 22 22 22 22 22 22 22 22 22 22 22 22 21 21 21 21 21 20 19 20 19 19 19 19 18 17 17 17 17 17 17 17 18 18 18 17 17 17 17 17 16 16 16 15 15 16 15 15 15 15 15 15 15 15 15 15 15 15 15 15 15 15 15 15 15 15 15 15 15 15 15 15 15 16 16
23 23 23 22 22 21 21 22 22 21 21 21 22 22 22 22 22 22 22 22 22 22 21 21 20 20 20 19 19 19 19 19 18 18 18 17 17 17 17 17 17 17 17 17 17 17 17 16 16 16 16 16 15 15 15 15 15 15 14 14 14 14 14 14 15 15 14 15 14 14 14 14 14 14 14 14 14 14 15 15 15 15 15 15 16 16
22 23 23 23 22 21 21 22 22 22 21 21 21 22 22 22 22 22 22 22 22 21 19 19 19 19 19 19 19 18 18 18 18 17 17 17 17 17 17 17 16 16 17 17 16 16 16 16 15 15 15 15 15 15 15 15 14 14 13 13 13 13 14 14 14 14 14 14 14 14 14 14 14 14 14 14 14 14 14 15 15 15 15 15 15 16
Height
774 792 800 798 796 791 786 783 780 778 778 782 783 789 799 803 800 791 784 779 777 794 806 802 804 807 804 803 801 798 796 796 798 799 799 800 799 800 801 800 799 798 796 793 795 796 797 799 801 804 805 806 808 810 809 806 803 802 800 799 802 804 804 805 805 806 806 806 807 808 809 809 809 810 811 811 812 812 813 814 815 815 815 816 816 816
779 801 802 789 786 781 780 777 772 773 776 781 787 792 797 797 794 786 783 784 779 795 812 806 808 813 808 806 804 799 800 800 799 800 801 801 800 800 800 800 799 798 795 794 796 797 799 801 803 804 803 801 800 800 800 798 796 796 797 798 800 802 802 802 802 802 802 802 803 804 806 807 809 809 810 810 811 811 812 813 814 813 814 814 814 814
797 804 792 778 775 775 776 773 771 774 777 783 787 792 799 796 793 788 782 786 784 797 817 812 813 820 813 808 806 803 803 801 799 798 799 800 801 801 800 799 799 799 798 796 797 797 799 801 801 800 798 797 797 796 796 795 794 794 793 794 797 800 801 801 800 799 799 801 803 804 806 807 808 808 809 810 810 810 810 811 812 812 812 812 812 812
810 798 778 771 772 775 776 771 772 778 780 785 789 794 799 794 797 796 789 791 789 796 814 814 817 823 817 812 809 807 805 802 800 798 798 799 799 801 799 797 799 800 800 800 800 799 799 799 797 796 796 796 796 795 794 793 792 791 791 793 795 798 799 799 799 799 801 805 807 808 808 807 807 807 808 809 809 809 809 810 810 810 810 811 811 811
804 783 767 769 773 774 777 774 777 785 788 790 788 792 797 791 792 793 791 796 799 804 807 809 825 829 821 823 818 810 807 804 802 801 801 801 799 800 798 797 799 799 800 802 802 800 798 796 795 795 796 795 793 791 790 790 790 791 792 793 795 796 797 798 799 800 804 807 808 807 807 806 806 806 807 807 807 807 807 807 807 808 809 809 810 810
792 773 765 773 774 773 778 779 780 786 794 795 788 785 787 786 787 788 790 799 815 826 808 801 837 848 827 826 826 817 813 810 808 806 805 805 801 800 800 799 800 800 800 800 800 799 797 796 796 796 794 792 789 787 789 791 791 791 792 793 794 795 796 798 798 800 802 803 805 805 805 804 804 805 805 805 804 804 805 805 806 807 808 808 809 809
781 768 767 775 776 775 779 782 778 780 795 802 788 777 779 779 782 786 789 800 819 829 808 795 831 854 836 826 825 821 822 817 812 810 809 807 804 801 801 801 801 802 802 801 801 800 799 798 798 797 794 791 787 786 790 792 791 791 791 792 794 795 796 798 798 799 800 801 802 803 802 802 803 803 803 803 804 804 804 805 805 806 806 807 807 807
775 773 773 774 776 779 784 786 778 775 794 800 778 771 777 775 778 782 784 794 801 807 810 804 815 843 844 830 823 822 826 823 817 815 812 808 806 803 803 803 802 803 803 802 802 800 800 800 799 797 795 791 789 789 790 791 791 791 791 792 794 795 797 798 799 799 799 800 801 801 801 802 802 803 803 803 804 804 803 804 804 804 805 805 805 805
772 779 778 774 779 784 783 781 772 772 788 785 768 769 774 771 775 778 781 789 788 802 831 822 810 839 851 831 823 825 827 826 821 818 815 811 808 806 805 804 802 803 803 801 801 800 798 798 797 796 794 791 792 794 794 793 793 792 792 792 793 795 797 798 798 799 799 800 800 800 801 801 802 802 802 802 802 802 802 802 802 803 803 803 803 803
771 771 768 770 781 781 776 771 765 770 779 770 762 768 769 771 775 775 783 789 788 810 843 830 811 838 853 834 827 831 828 826 823 818 815 813 811 809 807 805 803 802 802 802 800 798 797 797 796 796 793 792 794 796 795 794 795 795 793 792 793 795 798 799 799 799 799 800 800 800 800 800 800 801 801 801 801 801 801 801 801 801 801 801 801 801
769 761 759 764 770 769 765 764 762 765 768 763 766 773 775 779 779 780 786 789 799 821 834 824 812 827 845 839 831 830 822 818 819 818 817 815 813 812 809 807 806 804 804 803 801 799 799 798 797 796 794 791 793 794 794 794 795 796 795 794 794 797 800 801 801 801 800 800 799 799 800 801 802 802 801 800 800 800 800 800 800 800 800 800 800 800
772 769 766 759 756 758 762 765 763 760 761 766 774 783 792 794 789 793 794 795 819 838 830 820 812 819 840 839 825 820 814 812 816 818 818 818 816 813 811 810 809 807 805 804 803 801 799 797 795 794 793 791 791 792 793 794 794 794 795 795 797 800 803 805 805 804 802 800 799 801 803 806 806 805 802 800 800 799 799 799 799 798 798 798 798 798
780 774 768 760 754 754 766 777 775 767 766 773 781 792 809 816 815 818 816 819 838 841 826 817 814 826 841 830 815 813 811 812 814 815 817 818 816 814 812 811 810 808 807 805 804 802 800 798 796 795 795 792 791 792 793 794 794 791 791 793 796 800 804 808 811 810 806 803 802 803 804 805 806 805 803 801 800 799 798 797 797 797 797 797 797 796
793 777 766 769 765 755 765 783 789 784 780 784 788 798 815 826 838 843 834 838 848 838 821 813 817 836 843 825 813 813 813 812 812 813 815 814 814 814 812 810 810 809 808 807 805 803 800 799 799 798 798 796 794 794 794 794 793 791 790 791 793 796 801 808 814 816 811 807 805 804 802 800 801 803 802 801 800 798 797 796 796 796 795 796 796 796
808 800 780 775 772 761 763 772 778 780 782 784 781 789 805 813 828 839 832 839 848 837 824 818 826 843 844 828 816 813 812 812 813 814 814 813 813 813 811 811 811 811 810 809 807 804 801 800 801 801 801 799 796 795 795 795 794 793 792 792 793 793 796 803 813 816 811 806 804 803 801 799 799 800 800 799 798 797 796 795 795 795 795 795 795 796
808 806 778 764 760 757 763 761 758 771 785 783 774 786 800 796 803 820 824 826 831 837 835 830 834 838 831 823 815 814 816 815 816 817 816 818 817 815 816 816 814 814 813 811 810 808 804 802 802 802 803 803 799 797 796 797 797 795 793 794 795 795 796 801 806 807 803 801 800 801 801 800 799 798 797 796 795 794 794 794 794 794 794 794 795 795
806 802 772 763 763 757 762 761 755 770 786 783 781 791 788 777 787 812 828 824 826 845 847 838 842 838 830 829 821 818 823 821 820 821 821 822 821 820 822 820 819 818 816 814 812 810 807 805 804 804 804 805 803 800 799 799 801 799 796 795 796 798 799 799 799 799 799 800 800 800 801 800 799 798 797 795 794 793 793 793 793 793 793 793 794 794
798 802 778 769 776 765 755 757 755 758 771 784 793 788 775 776 784 799 826 836 841 858 853 842 849 847 843 844 831 824 830 828 825 825 825 825 824 825 825 823 822 821 818 817 814 813 811 808 805 804 804 804 804 803 802 802 803 803 801 797 795 797 798 798 799 799 801 802 801 800 799 799 798 796 795 794 794 793 792 792 792 792 792 792 792 793
783 803 790 771 778 771 753 761 773 765 762 775 783 774 778 799 804 802 820 837 849 864 860 849 851 848 845 843 835 833 836 832 830 828 828 829 827 827 827 825 824 822 821 820 817 815 813 810 807 804 803 804 804 804 804 804 804 805 806 800 795 795 795 798 800 800 801 801 800 799 798 797 796 794 794 792 792 792 791 791 790 790 790 790 790 791
776 801 805 779 772 773 767 777 795 789 773 769 774 774 781 796 804 806 812 821 837 859 864 858 854 849 842 835 832 835 832 830 832 831 831 831 828 828 827 826 825 823 823 822 820 818 815 812 810 807 805 805 805 806 805 805 806 807 807 802 796 795 795 798 800 799 799 799 798 797 796 794 793 792 791 790 789 789 788 788 788 787 788 788 789 789
777 795 808 792 777 782 790 791 794 795 789 786 790 794 794 792 794 802 808 809 820 842 857 860 860 852 837 826 827 829 827 827 828 830 831 830 828 828 827 826 825 823 824 823 822 820 817 815 813 810 809 808 807 807 807 807 808 809 807 801 797 795 794 797 799 798 798 797 796 795 793 793 792 791 791 789 788 787 785 785 785 785 786 786 787 788
784 793 804 803 795 797 797 784 778 782 784 789 795 798 799 798 800 814 823 813 807 823 840 846 852 849 832 822 823 823 823 823 824 826 830 829 828 828 827 826 825 824 824 823 822 821 819 817 814 812 811 810 809 809 808 808 809 809 806 802 798 795 794 796 798 798 798 796 794 793 794 795 795 794 794 792 791 789 786 784 783 784 784 784 785 786
777 789 801 807 803 798 790 776 772 773 771 778 785 787 792 796 800 819 831 820 810 818 826 831 841 842 828 819 820 820 819 820 821 823 827 828 827 827 827 826 825 824 824 823 822 820 819 817 815 814 812 811 811 810 810 810 810 809 807 804 802 798 796 798 800 800 799 797 794 794 797 798 796 794 792 791 791 791 789 786 784 784 784 783 783 784
776 793 805 809 802 792 783 774 770 769 771 781 785 782 788 793 793 800 807 808 812 818 822 832 844 841 827 818 818 817 817 819 820 821 824 826 826 825 826 826 825 825 824 822 821 820 818 817 815 814 813 812 812 812 812 811 811 811 810 808 806 802 799 799 802 803 800 798 796 797 798 797 794 791 789 789 789 788 789 789 789 787 786 784 783 783
785 801 808 817 822 815 806 798 790 783 783 790 790 784 785 787 787 791 795 801 813 816 815 827 843 842 827 818 817 817 817 820 821 820 821 824 825 825 825 825 825 824 823 822 821 819 818 817 816 815 814 813 813 813 812 812 812 812 811 810 808 805 802 801 803 804 803 800 798 798 799 798 794 790 789 789 789 788 787 787 787 787 786 784 783 782
785 799 803 818 836 839 834 825 813 803 796 794 791 786 784 783 785 792 800 809 818 817 812 819 836 842 829 820 820 818 818 821 821 821 821 822 823 824 823 824 824 822 822 821 820 819 818 817 816 815 814 814 813 813 812 812 813 813 812 811 810 809 807 805 803 804 804 802 798 797 798 799 797 794 792 790 789 788 786 783 782 785 785 784 782 781
784 795 796 807 819 822 823 815 803 801 803 802 796 790 786 784 783 788 800 810 812 814 819 823 830 839 834 824 822 820 819 821 821 821 823 822 823 823 823 823 822 821 821 820 819 819 818 817 816 815 814 813 812 812 812 812 812 812 813 813 813 813 811 809 806 804 803 802 799 797 796 796 796 795 793 790 788 787 785 781 782 783 784 783 781 779
788 797 795 799 804 803 804 801 794 797 802 802 799 794 789 785 784 789 798 802 801 812 827 828 826 833 833 824 822 821 820 820 820 820 822 822 823 823 822 822 822 821 820 819 818 818 817 816 815 813 813 812 812 812 811 811 811 812 813 814 815 815 813 811 809 805 803 801 799 798 796 795 795 793 792 790 788 786 784 782 782 782 781 781 779 777
791 802 798 798 801 798 796 796 795 796 798 797 798 798 795 792 791 795 798 796 795 805 819 824 824 828 827 821 819 818 817 817 818 817 817 819 821 822 822 822 822 822 820 818 817 816 815 814 813 812 813 812 811 811 809 809 810 810 812 813 814 814 813 812 810 807 805 802 800 798 796 795 794 793 791 789 787 786 784 783 782 780 779 778 777 776
790 804 799 798 802 799 795 795 794 796 799 801 802 801 800 800 799 801 803 800 797 804 813 818 822 823 818 816 815 814 814 814 814 814 815 818 821 821 822 822 822 821 819 817 816 814 813 813 812 812 812 812 811 810 809 809 809 809 810 810 811 812 811 810 809 807 805 802 800 798 797 795 794 792 791 789 787 785 784 782 781 779 777 776 776 775
790 803 800 797 806 807 799 794 794 800 806 809 810 807 803 804 806 808 809 806 808 817 819 818 823 824 817 812 813 814 813 814 816 817 818 819 820 821 822 822 821 819 817 815 814 813 812 812 812 813 812 812 811 810 809 809 808 809 808 808 809 808 808 807 806 805 804 802 800 798 796 795 793 792 791 789 787 785 783 782 780 778 777 775 775 774
790 801 800 801 815 816 803 800 802 802 807 814 818 816 812 811 814 815 814 811 814 822 824 825 830 830 821 814 815 816 815 817 820 819 818 820 820 820 821 820 819 817 816 814 814 813 813 812 812 812 812 811 810 809 809 808 808 808 807 807 807 806 806 805 803 803 802 801 800 798 796 795 794 792 791 789 787 786 784 782 780 778 777 775 774 774
791 799 802 808 820 819 807 805 805 807 823 835 828 819 818 817 817 819 819 817 816 819 826 832 832 828 821 817 818 820 820 820 822 820 820 822 821 819 818 817 816 815 814 814 814 814 814 813 812 812 810 809 809 808 808 808 807 808 807 807 807 805 805 803 802 801 800 799 799 797 796 795 794 792 791 789 787 785 783 782 780 778 776 774 774 773
792 797 802 809 818 820 812 805 810 828 850 848 824 813 816 817 819 825 828 826 822 821 825 828 826 824 822 821 822 824 823 822 822 820 819 820 820 819 817 816 815 814 813 814 814 814 814 813 812 811 810 809 809 808 808 807 807 807 807 807 806 805 803 802 801 800 799 798 797 796 795 794 793 791 790 788 786 785 783 781 779 777 776 774 773 772
794 796 802 806 812 818 813 812 834 857 854 833 817 813 815 814 816 823 830 829 826 825 825 826 827 826 825 824 823 823 823 821 821 820 818 818 818 818 818 817 816 815 816 816 815 815 814 813 811 811 810 810 809 808 808 808 807 807 807 806 805 804 802 801 800 799 798 796 795 795 794 792 791 790 789 787 785 783 782 780 778 776 775 773 772 770
792 798 803 806 811 818 818 824 845 853 835 821 821 818 815 817 818 824 836 838 830 827 829 830 830 828 825 825 824 822 822 821 820 821 820 819 818 818 819 819 817 817 817 816 816 815 814 813 812 811 811 810 809 809 809 808 808 807 806 805 804 803 801 800 799 798 796 795 794 793 792 790 789 788 787 786 784 782 780 779 776 775 773 771 770 769
786 797 804 808 813 819 823 830 836 836 832 831 829 822 819 822 822 826 841 846 834 828 831 831 832 831 827 826 825 823 822 823 826 827 823 820 820 819 819 819 817 817 817 816 816 816 814 814 812 811 811 810 810 810 809 809 808 807 806 804 803 802 801 800 799 797 795 793 792 791 790 789 787 786 785 784 782 781 779 777 775 773 771 770 768 767
781 791 801 810 815 815 822 833 841 849 853 844 832 822 817 819 817 817 835 847 838 831 832 832 833 834 831 830 829 825 825 832 838 835 827 823 822 820 819 819 818 818 818 818 817 816 815 814 812 811 811 810 810 810 809 808 808 806 805 803 802 801 800 799 798 796 794 792 790 789 788 787 785 784 783 782 781 779 778 775 774 772 770 768 766 764
786 792 796 808 817 817 823 838 850 858 856 841 829 821 815 817 813 813 838 857 845 832 833 832 833 836 834 833 832 829 833 844 847 838 829 826 823 821 820 819 818 819 819 818 817 816 815 814 812 811 810 810 810 810 809 808 807 805 804 803 801 801 800 798 797 795 793 791 789 788 786 784 783 782 781 780 779 778 776 774 772 770 768 767 765 762
796 799 802 813 824 825 830 844 852 852 846 834 825 821 817 812 807 823 859 870 847 834 836 834 834 837 834 834 836 835 839 846 844 836 828 825 823 822 821 820 819 818 818 817 816 815 814 813 812 811 811 810 810 809 808 807 806 804 803 802 801 800 799 797 796 794 793 791 788 787 785 783 781 779 778 777 776 775 774 773 771 769 767 765 763 761
807 808 812 820 828 829 835 847 852 847 838 830 826 821 814 811 820 847 870 861 840 837 838 833 835 837 834 834 837 837 838 837 834 830 826 823 823 822 821 820 819 818 817 817 816 815 814 813 812 811 811 810 810 809 808 806 805 804 803 802 801 800 798 796 795 793 792 790 787 786 784 781 780 778 776 775 774 772 772 770 769 767 765 763 761 759
817 819 822 824 828 831 834 843 852 850 837 826 825 820 813 822 845 858 854 841 837 839 836 833 835 835 833 834 835 835 834 831 829 828 826 824 824 822 821 820 819 819 818 817 816 815 814 813 812 811 810 810 809 808 807 805 804 803 802 801 800 799 797 795 794 792 790 789 787 785 783 781 779 776 774 772 771 770 769 768 766 765 763 761 759 757
819 826 830 828 827 832 839 848 860 861 842 824 825 826 825 835 848 847 838 836 837 836 834 835 835 833 833 834 832 832 832 829 828 827 825 824 823 822 821 821 819 819 819 817 817 816 815 814 812 811 810 809 808 807 806 805 804 802 802 801 799 798 796 794 793 791 789 787 786 784 782 780 777 775 773 771 769 767 766 764 763 762 761 759 757 755
818 823 830 831 828 835 851 860 861 855 840 827 828 835 837 837 836 835 837 839 836 834 835 836 834 833 833 833 832 832 831 829 828 827 825 824 823 821 821 820 819 820 819 818 818 816 815 815 813 812 811 809 808 807 806 804 804 802 801 800 798 797 795 793 792 790 788 786 784 782 780 778 776 774 772 770 768 766 763 761 760 759 758 757 755 753
819 816 822 832 833 836 847 852 846 840 836 831 832 835 836 835 834 834 836 837 837 837 836 835 835 834 832 832 833 832 831 830 828 826 824 824 822 822 822 821 820 821 819 818 817 816 815 815 813 812 811 809 808 807 805 804 804 802 800 799 797 796 794 792 791 789 787 785 783 781 779 777 774 772 770 768 766 764 761 759 757 756 755 754 752 751
817 811 816 829 834 835 840 843 839 838 839 836 834 834 834 834 835 834 834 836 836 835 833 834 835 833 831 832 832 831 831 830 827 826 825 824 823 823 823 822 822 821 820 818 817 816 815 814 812 811 810 808 808 807 805 805 804 802 800 799 797 795 793 791 789 788 786 784 782 780 778 775 773 771 769 767 765 762 760 758 756 753 752 750 749 748
818 814 819 829 836 841 848 847 840 840 841 837 836 835 833 833 834 833 834 835 834 833 833 832 832 831 831 830 830 831 830 829 828 828 826 825 825 825 824 823 823 821 820 819 817 816 815 813 811 810 809 808 808 807 806 805 803 801 800 798 796 794 792 790 789 787 785 783 781 778 776 774 772 769 767 765 762 760 758 756 754 752 749 747 746 745
822 818 826 834 838 843 849 847 841 840 841 838 837 838 836 835 835 834 834 834 833 833 833 831 831 831 830 829 830 830 830 830 830 829 828 827 827 826 824 824 823 821 820 819 817 816 815 813 811 810 809 809 808 807 806 805 803 801 800 797 796 794 791 790 788 786 784 782 779 777 775 773 770 768 765 763 760 758 756 753 751 749 747 745 744 743
822 823 831 837 841 846 847 844 842 844 843 840 839 839 837 837 836 835 835 835 834 834 833 832 831 830 829 830 831 830 831 831 830 829 829 828 827 826 825 824 822 821 820 818 817 816 815 813 812 810 810 809 808 807 807 805 803 801 799 797 795 793 791 789 787 785 783 781 778 776 773 771 769 766 764 761 759 756 754 752 750 748 744 742 742 741
826 832 834 837 846 853 850 843 842 846 848 845 841 838 837 836 836 836 836 835 834 835 834 833 832 831 831 832 832 831 832 832 830 829 829 828 827 827 825 824 822 821 820 818 817 816 815 814 812 811 811 810 808 807 806 805 803 801 799 797 795 793 791 789 786 784 782 780 777 775 772 770 767 765 763 760 757 754 751 748 747 745 742 739 737 737
830 834 833 837 846 850 845 840 839 842 845 844 840 838 837 836 835 836 836 835 835 835 834 834 834 834 834 833 833 832 832 831 831 830 829 828 828 827 825 824 823 821 820 819 818 816 815 814 813 812 811 810 809 808 806 804 803 801 799 797 795 793 790 788 786 784 781 779 777 774 771 769 766 764 761 759 757 754 750 745 742 741 739 737 735 733
Wind_Speed
2 2 5 5 8 6 6 8 4 1 2 3 4 3 5 7 6 6 5 4 9 6 1 5 7 6 9 7 3 1 2 7 6 5 5 4 4 5 6 5 5 6 5 5 6 7 8 11 8 5 7 6 5 7 5 6 8 12 19 22 23 26 27 26 27 28 28 28 26 25 25 26 26 25 24 23 24 24 24 23 23 24 24 24 24 24
2 2 7 8 11 9 7 8 1 6 5 4 3 3 2 4 5 6 4 1 5 6 3 5 9 3 2 3 4 3 4 6 6 6 5 4 5 4 5 6 5 3 3 2 1 1 2 1 6 9 9 11 12 12 15 18 18 18 19 22 23 25 28 28 27 29 30 31 29 27 27 26 25 24 24 24 23 23 23 22 22 23 24 24 24 23
4 4 10 12 11 8 6 4 4 6 4 5 3 3 4 2 2 5 3 4 5 5 2 6 10 5 4 5 5 5 2 0 1 5 5 5 6 4 5 5 4 1 3 4 5 4 6 12 14 12 13 15 16 17 18 18 19 19 19 21 22 24 28 28 28 29 30 29 28 25 23 23 23 23 23 23 22 22 22 22 21 21 22 23 23 22
4 6 11 10 6 4 4 5 7 6 4 4 4 4 5 2 3 4 3 5 6 4 6 8 9 4 5 5 5 6 4 3 4 6 5 4 5 4 5 3 3 3 4 5 5 6 13 19 18 17 17 16 16 18 18 19 21 21 19 19 19 22 25 26 27 28 25 22 21 20 19 18 19 19 20 21 21 20 20 20 20 20 20 21 22 22
7 12 11 6 4 1 2 6 7 5 5 4 3 3 4 4 2 4 2 7 8 5 8 11 8 4 5 4 4 5 4 4 5 7 7 3 2 2 1 2 2 4 5 6 7 6 11 14 15 17 17 16 17 19 19 19 19 18 17 15 15 17 21 23 24 23 20 18 19 19 18 16 16 16 16 18 20 20 19 19 20 20 19 19 21 22
9 12 8 5 4 1 3 3 2 5 4 5 3 4 5 4 2 3 8 10 7 1 5 8 7 4 5 3 1 4 5 5 5 5 7 2 3 3 2 3 3 5 5 6 7 5 8 11 13 16 17 17 19 20 18 15 14 15 14 12 12 13 16 19 21 20 19 19 20 21 20 18 17 17 18 20 22 21 20 19 19 19 18 18 19 21
6 7 5 3 4 1 4 2 1 3 5 4 4 5 5 2 2 3 8 7 5 5 5 2 6 2 5 4 3 4 5 4 4 3 2 1 4 4 2 2 3 5 6 7 7 5 5 6 8 11 14 16 18 17 13 10 12 14 13 11 10 11 12 15 18 19 19 20 22 22 21 20 20 20 21 23 23 22 20 18 18 18 19 19 19 21
3 4 7 2 2 1 3 2 4 3 4 4 7 4 2 0 1 1 3 2 5 5 4 4 7 5 2 4 3 4 3 1 3 0 3 1 4 4 3 3 3 5 7 8 7 5 5 3 1 2 6 9 12 11 9 7 8 10 10 8 6 7 10 12 15 18 19 19 20 21 21 21 21 22 22 22 21 21 20 18 17 18 17 17 19 20
2 1 6 1 5 2 2 4 3 3 3 7 7 3 4 3 2 1 1 2 2 5 5 2 8 6 2 5 3 3 0 2 2 4 4 3 4 4 4 3 3 5 7 8 6 4 3 3 3 2 5 8 10 6 1 0 3 6 7 6 4 5 8 11 13 15 17 19 19 19 20 21 21 22 22 20 19 19 18 17 17 16 15 15 16 18
3 4 6 2 3 2 5 6 4 2 3 7 4 3 5 4 2 2 1 2 1 6 5 7 6 5 2 5 2 1 1 3 4 5 3 2 2 2 4 4 5 5 6 6 4 3 3 3 3 1 4 8 8 5 5 7 5 5 7 9 10 7 7 11 13 14 15 17 18 19 20 20 19 19 18 17 17 16 16 16 15 14 14 14 15 16
6 5 4 3 3 5 5 5 4 4 5 4 5 5 6 6 5 4 1 2 2 2 5 10 5 5 2 4 3 3 3 4 5 3 1 2 3 4 5 6 6 5 5 5 3 2 3 3 4 5 5 9 10 8 10 12 11 10 11 13 14 12 10 10 12 13 14 15 17 19 19 16 14 14 16 17 17 17 15 15 15 15 15 15 16 16
6 5 4 3 4 4 1 3 3 4 3 4 5 4 5 6 5 5 5 4 4 3 2 4 5 7 3 3 5 6 4 4 5 4 4 4 4 5 6 6 5 4 4 3 3 4 5 6 8 11 12 15 17 16 17 17 17 18 17 16 17 18 16 13 11 11 12 13 15 14 12 11 11 13 16 18 19 19 18 17 17 16 15 15 15 15
7 6 6 3 2 4 2 2 5 7 6 5 4 4 4 4 4 3 4 4 4 1 1 1 5 6 2 3 4 5 2 4 5 4 6 7 6 6 6 5 4 3 3 3 3 3 4 5 8 12 14 17 20 19 19 19 18 18 16 15 17 19 21 21 18 13 12 12 12 10 9 11 12 14 18 20 20 21 20 19 18 17 16 15 15 15
5 7 3 0 2 1 5 3 2 4 3 4 2 2 2 1 2 3 2 3 3 3 2 1 5 4 2 4 1 4 6 6 7 6 6 8 8 6 5 5 5 4 3 3 4 4 4 4 6 10 11 14 18 18 18 18 16 14 13 13 16 18 21 27 29 24 19 15 11 10 11 13 12 13 17 19 20 20 20 19 18 18 16 16 16 16
2 7 3 3 2 1 3 5 6 3 1 2 4 4 3 2 3 2 2 3 3 2 1 2 5 3 2 2 3 7 8 7 8 7 6 7 6 5 6 5 5 4 4 4 4 4 6 6 5 6 8 12 16 17 19 19 16 14 14 15 19 21 22 26 30 27 24 23 18 14 14 15 13 13 15 17 18 18 18 18 18 18 16 15 15 15
1 4 4 2 3 6 5 4 4 3 1 2 2 4 1 2 5 2 0 4 4 2 2 3 2 2 3 4 5 7 9 8 8 8 8 7 5 5 6 4 4 5 5 6 6 5 6 9 8 6 8 12 14 16 17 18 18 17 19 22 25 26 24 21 18 15 14 17 19 18 16 16 15 14 14 15 16 16 16 17 17 17 17 17 16 14
2 3 5 4 3 2 5 2 4 4 1 1 2 2 3 3 7 4 2 3 4 5 2 2 3 3 4 4 4 6 9 7 7 8 8 7 7 7 6 5 5 5 6 6 6 6 8 10 10 8 10 11 11 12 14 16 18 21 24 24 24 22 19 14 10 9 10 11 14 16 15 14 14 14 14 14 15 15 15 16 16 17 17 17 17 15
3 2 7 2 5 3 4 3 10 9 3 3 3 3 3 2 5 4 3 3 4 4 1 2 4 3 3 2 2 5 7 6 6 7 7 7 7 7 6 6 6 6 6 6 6 6 7 8 9 9 10 11 11 12 14 16 20 24 24 22 21 19 14 10 8 8 11 13 13 14 14 13 13 13 14 14 14 15 16 16 17 18 17 17 16 15
4 1 7 3 4 3 4 7 9 9 6 4 1 2 2 3 2 2 3 2 2 3 0 2 2 1 3 2 0 3 5 5 6 6 7 7 6 6 6 5 5 5 5 5 5 5 5 7 9 10 11 12 14 16 16 18 22 22 19 20 21 19 15 11 8 8 9 11 12 13 14 15 14 13 14 14 15 16 17 18 18 18 18 16 15 15
3 4 4 6 4 3 5 6 4 6 7 4 2 3 3 2 1 1 2 3 4 3 2 1 2 1 3 3 3 5 4 6 7 6 7 6 5 5 4 4 4 4 4 4 4 3 5 8 9 10 11 13 15 18 18 21 23 20 17 20 21 19 16 13 9 8 8 10 12 13 14 16 15 14 14 14 15 16 17 18 18 19 19 17 15 15
3 4 1 5 6 4 3 1 3 3 4 4 5 5 3 2 2 2 1 1 4 4 3 2 1 4 4 2 4 6 5 5 7 7 6 5 5 5 4 3 3 4 4 4 3 3 4 6 8 9 11 13 15 17 19 21 21 20 20 23 22 18 16 14 12 10 9 11 13 14 13 13 14 15 15 14 15 16 17 18 18 19 19 18 17 15
2 3 2 2 4 3 2 4 3 6 5 4 2 1 0 1 2 4 2 3 2 4 4 4 2 4 4 2 4 5 6 6 7 8 7 5 5 5 4 4 3 4 4 3 3 3 3 4 5 7 9 13 16 18 20 20 19 19 23 25 23 20 17 16 16 13 11 11 13 15 14 13 15 15 15 15 16 17 17 17 18 18 19 19 18 17
1 3 3 1 1 1 5 6 2 4 4 5 2 0 2 1 3 4 1 4 1 2 2 4 2 4 4 3 4 5 6 6 7 9 7 6 6 6 5 4 3 3 3 2 2 2 3 5 5 7 9 11 14 17 18 19 19 20 22 23 23 20 17 18 19 17 13 11 12 13 13 14 14 14 14 15 17 19 20 19 17 16 18 19 19 18
2 3 3 3 4 4 6 7 5 5 6 4 2 2 2 0 1 4 3 3 1 1 2 3 0 3 4 3 2 4 5 6 6 8 8 6 5 5 5 5 3 3 2 1 1 2 4 6 7 8 9 9 12 15 16 18 19 21 21 20 19 18 16 17 18 18 16 14 14 13 12 12 12 13 14 13 14 17 19 19 19 18 19 19 19 18
2 1 3 3 4 6 7 7 7 7 4 1 3 3 2 4 2 2 1 2 1 3 4 5 2 4 4 2 3 5 6 7 6 6 8 7 5 5 5 4 4 4 3 2 2 3 4 6 7 9 9 9 10 13 15 17 17 18 20 20 18 16 15 17 19 19 17 16 16 14 12 12 13 14 15 14 13 14 15 15 16 18 19 20 21 20
2 2 4 4 2 1 1 2 3 4 3 2 3 5 4 5 4 1 2 3 1 3 4 5 3 3 2 2 4 4 6 7 5 6 6 6 6 5 5 5 4 4 4 3 3 2 3 3 5 7 9 9 11 12 13 15 16 15 17 20 18 16 14 16 19 20 18 17 17 17 14 11 11 14 16 17 16 14 13 14 14 15 18 19 20 21
3 2 3 7 6 4 5 5 5 3 2 4 6 7 7 7 6 3 3 2 4 3 2 1 5 7 5 6 6 5 6 7 6 6 6 5 6 5 4 4 3 3 3 2 1 1 1 1 2 5 7 8 9 11 11 13 15 15 13 14 15 13 12 13 17 19 21 20 18 18 17 14 13 15 16 18 18 16 16 17 15 15 16 17 18 18
4 2 1 4 5 6 7 5 4 3 3 4 7 8 9 8 5 1 1 4 6 6 1 4 7 11 9 8 7 6 6 6 6 6 7 6 6 5 5 4 4 3 3 2 1 1 2 2 2 3 6 6 7 10 12 13 14 14 11 9 10 11 10 10 13 16 20 22 21 19 17 15 16 17 18 18 18 17 17 17 16 15 15 14 15 16
5 2 3 2 1 2 1 2 4 6 5 7 11 12 9 7 6 4 1 2 6 7 4 6 8 9 8 8 7 7 6 6 6 6 7 7 7 6 6 5 4 5 5 4 4 5 5 4 4 4 4 4 6 10 14 14 13 13 12 9 8 10 11 10 10 13 16 20 21 21 18 14 15 17 18 19 19 19 18 18 17 16 15 14 14 15
5 2 5 5 5 6 7 6 7 8 8 10 13 11 8 11 11 9 7 7 9 8 6 8 8 4 4 6 6 5 5 5 4 3 5 7 8 7 6 6 5 6 6 6 6 6 6 6 6 5 3 4 6 9 12 13 12 13 14 11 10 11 12 12 11 13 16 18 19 20 19 16 15 17 18 19 20 20 20 20 20 18 18 16 15 15
4 1 3 5 5 6 7 8 8 8 9 11 13 10 9 12 10 9 8 8 9 8 6 8 9 4 2 2 5 5 5 5 6 5 5 6 8 8 6 6 6 6 6 6 6 5 5 5 4 4 3 4 5 8 11 12 11 13 14 13 13 15 15 15 15 16 18 19 18 19 18 16 16 18 20 20 20 20 19 20 20 20 19 18 17 15
3 0 2 5 5 4 5 7 8 7 9 12 13 10 7 9 8 6 6 6 6 8 8 8 6 1 2 4 7 6 6 7 6 5 5 5 4 6 8 8 7 7 7 6 4 4 4 5 1 3 3 2 4 8 11 12 12 13 12 11 14 17 18 19 20 20 20 20 19 19 18 15 15 19 21 20 20 20 19 18 19 20 20 20 18 16
2 3 1 3 3 4 6 4 6 6 8 8 8 7 6 9 11 10 10 10 6 6 7 4 3 2 1 6 7 6 6 7 5 4 5 4 3 1 2 5 6 6 4 2 2 3 1 2 4 3 2 5 8 10 12 12 12 12 12 12 14 17 18 20 21 22 22 22 20 18 17 15 16 18 19 19 20 21 19 18 18 18 20 20 19 17
3 5 2 2 2 4 7 4 6 6 6 4 6 4 7 11 15 14 11 9 8 6 4 4 3 3 4 6 7 5 5 5 3 3 3 3 2 5 4 2 2 1 2 4 5 4 4 5 4 3 6 8 10 11 11 12 12 13 14 16 17 18 20 20 21 22 23 22 21 19 18 17 17 18 18 18 19 19 19 19 18 18 18 20 20 18
3 4 1 2 3 2 3 6 6 3 3 2 4 6 10 13 17 17 13 10 8 7 7 7 6 5 5 5 5 5 4 3 4 5 6 5 5 6 6 5 6 6 6 6 5 4 4 4 4 7 8 9 11 13 14 15 15 16 17 17 18 18 20 21 21 23 22 22 22 22 21 20 19 18 18 18 18 18 19 20 20 19 19 19 20 19
5 4 1 1 1 1 1 4 3 4 2 2 3 5 5 6 9 13 13 12 9 6 6 6 5 4 5 5 4 5 4 4 5 6 7 7 7 7 7 5 5 5 6 7 6 4 2 5 8 8 11 13 14 15 16 16 16 16 16 16 17 18 19 21 22 23 23 23 23 23 23 22 21 19 19 18 18 18 19 19 20 20 20 20 21 20
6 4 2 1 0 2 2 1 2 2 2 4 3 2 3 4 3 7 9 7 9 8 7 6 6 6 5 4 4 4 5 6 6 6 8 8 7 6 7 7 7 5 7 9 6 3 4 8 12 14 15 15 14 14 14 13 13 14 14 16 16 18 19 21 22 23 23 24 24 24 24 24 22 21 20 18 18 18 19 19 20 20 20 21 22 21
5 4 3 2 0 2 3 3 3 2 1 4 6 6 3 4 6 9 10 5 7 7 7 8 8 7 6 7 6 5 5 6 5 5 7 7 6 6 8 10 13 12 6 5 5 9 12 15 16 16 15 15 13 12 12 12 13 14 15 16 16 17 18 19 20 21 22 24 25 25 25 25 24 22 21 19 18 18 19 19 19 19 19 20 22 21
7 4 4 4 2 3 4 3 2 2 2 5 8 8 6 1 5 7 9 5 5 6 6 8 8 7 7 7 7 6 6 5 4 5 6 6 6 7 8 9 12 14 12 11 13 15 15 15 15 15 15 14 13 12 12 12 13 15 15 15 15 16 17 17 18 20 22 24 24 25 25 25 25 24 22 21 20 19 18 18 18 19 19 20 21 22
6 4 5 5 2 2 3 3 2 2 2 5 7 8 8 4 2 7 6 2 4 6 6 8 8 6 6 6 6 6 5 2 3 4 5 6 7 8 8 7 8 10 12 13 14 14 14 14 15 15 14 13 12 12 11 12 13 14 14 14 14 16 16 16 18 20 21 22 22 23 25 26 26 26 25 24 23 21 19 18 19 19 20 21 21 22
4 3 3 4 2 3 4 3 1 1 2 4 6 8 9 5 6 7 3 3 2 4 5 7 7 5 6 6 5 3 1 1 2 4 5 6 8 9 11 12 11 12 13 14 14 14 14 13 13 14 14 13 12 12 13 14 15 15 14 14 15 15 15 16 18 19 19 20 20 22 24 25 26 27 27 26 24 22 20 19 18 18 19 21 22 22
2 3 3 2 2 2 3 3 1 0 3 4 4 8 9 4 4 2 4 4 1 3 4 6 6 5 5 5 4 2 3 3 3 4 6 6 5 7 12 16 15 16 17 18 18 18 17 16 17 17 16 15 14 15 16 15 15 15 14 14 15 15 16 17 17 17 18 19 20 21 23 24 25 26 27 27 26 24 23 21 19 18 17 18 20 21
1 2 2 2 2 2 3 4 3 1 5 6 4 5 7 3 5 4 2 1 2 3 4 5 5 5 5 4 4 4 4 4 5 5 6 6 5 6 9 11 11 13 15 17 19 20 19 18 18 16 14 14 15 16 16 14 13 14 14 14 15 16 16 15 16 17 18 19 20 21 21 23 24 25 26 27 27 26 25 24 21 18 17 17 18 20
1 2 1 1 2 2 3 3 1 3 4 6 4 3 3 3 4 4 3 2 3 3 4 4 4 4 4 4 4 5 4 5 5 5 6 6 5 5 7 9 10 12 14 15 16 18 18 16 14 13 13 15 15 15 14 13 13 13 14 15 15 14 14 15 16 17 17 18 19 20 21 23 24 25 25 26 26 26 26 26 23 20 19 19 19 19
2 3 6 3 4 4 4 3 2 2 4 7 7 5 4 4 3 4 5 4 2 1 2 3 2 4 4 4 4 4 4 4 5 6 6 5 5 6 8 10 12 12 12 13 15 16 14 13 13 13 14 15 15 14 13 13 13 14 14 14 14 14 16 17 17 17 17 18 19 21 22 23 24 25 25 25 25 25 26 26 25 22 21 21 20 19
3 5 7 6 6 8 7 4 3 5 6 6 6 5 5 5 3 3 5 4 3 3 3 3 3 4 4 5 5 4 4 5 6 7 6 5 5 8 10 12 13 14 14 14 14 14 12 12 13 14 15 15 15 14 13 13 14 14 13 13 15 17 17 17 17 18 18 19 20 21 22 23 24 24 24 25 25 25 25 24 24 23 23 22 20 19
4 5 5 4 4 6 4 2 3 5 5 5 6 5 5 5 4 4 5 4 4 4 4 4 4 5 5 5 4 5 6 6 6 7 6 5 6 8 10 11 13 15 15 14 14 14 13 13 13 14 14 14 14 14 14 15 15 14 13 14 17 18 18 18 18 18 19 19 20 22 23 23 23 23 24 25 25 25 25 25 23 23 22 22 20 20
3 4 5 5 4 5 4 3 3 6 5 4 5 5 5 6 6 5 5 4 4 5 6 5 4 4 4 5 5 5 6 6 6 5 4 5 5 7 9 10 12 14 15 15 15 15 14 14 14 13 13 14 15 16 17 17 15 14 15 17 18 19 19 19 18 18 19 20 21 22 23 23 23 23 24 25 25 25 25 25 24 23 23 23 22 21
2 3 3 4 5 5 3 1 2 6 6 5 5 5 4 4 5 5 5 5 6 6 6 6 6 6 7 6 6 6 5 5 5 4 3 4 5 7 10 11 12 13 15 15 16 15 15 15 15 13 13 14 15 16 16 15 15 17 18 19 21 21 20 20 19 20 20 20 21 23 23 23 23 23 24 24 25 25 25 24 24 24 25 26 24 22
3 4 3 4 5 3 0 2 1 4 3 1 3 5 4 4 5 6 5 5 5 5 4 6 8 11 12 11 9 7 4 4 7 7 5 5 7 9 11 12 13 13 15 15 15 14 14 15 14 13 13 14 15 15 15 14 16 19 21 21 22 22 21 20 19 19 20 21 22 23 23 22 23 23 23 23 24 25 27 27 26 24 24 25 25 23
2 3 3 4 4 3 4 3 3 5 4 2 2 5 5 4 5 5 4 5 5 6 6 7 8 9 9 9 10 9 5 5 9 9 6 7 9 10 11 12 13 13 14 15 14 13 13 14 14 14 14 15 16 17 16 15 18 22 23 22 22 23 22 21 18 18 20 21 22 22 22 21 22 22 22 22 22 23 25 27 29 28 25 24 24 24
Wind_Direction
156 257 279 256 258 257 265 251 208 45 3 65 8 21 125 172 215 228 241 228 159 137 19 147 132 144 167 179 151 78 162 144 149 157 148 146 146 152 165 192 212 214 234 235 219 206 204 205 186 132 116 129 101 83 127 180 177 186 195 199 194 192 200 205 205 208 210 211 213 215 218 225 229 232 235 236 237 237 238 239 240 241 242 244 246 247
66 263 263 251 253 251 256 262 56 43 1 18 25 1 35 171 213 236 235 228 128 90 7 113 104 87 147 88 22 22 130 153 171 157 147 153 154 162 176 201 218 238 311 9 91 175 238 209 95 95 123 168 185 176 188 203 203 203 203 206 204 194 198 206 208 209 211 213 213 213 217 222 226 231 234 236 237 238 240 241 241 242 242 243 243 242
348 274 258 255 258 259 261 280 39 40 357 356 1 4 329 262 239 283 309 40 72 82 43 104 94 44 20 50 12 1 68 92 227 140 147 160 155 182 200 209 215 205 8 40 51 42 76 94 111 143 168 180 195 194 195 204 205 208 210 211 208 199 199 205 207 209 211 213 214 217 221 224 228 234 237 237 240 242 241 240 239 239 240 242 243 242
300 261 254 256 269 287 300 340 20 11 7 10 339 335 304 254 152 269 305 44 46 91 134 109 88 52 14 23 19 360 356 35 56 95 110 137 152 204 219 200 179 130 83 69 60 64 93 109 131 157 170 175 194 202 201 208 210 212 216 215 209 206 206 206 209 213 209 207 214 223 229 232 233 239 245 242 240 241 240 240 239 235 235 239 242 243
252 254 257 276 298 288 0 356 28 33 356 342 301 281 285 285 207 218 145 87 63 68 126 106 72 2 353 7 13 344 341 46 52 84 87 69 110 196 252 76 91 94 85 83 85 89 104 121 139 151 168 187 204 210 208 213 217 219 223 221 219 221 219 218 220 216 206 208 218 221 222 227 230 236 242 239 236 236 236 239 242 240 237 237 241 244
253 259 274 308 299 141 84 342 72 89 358 327 283 240 235 259 268 147 117 105 88 98 192 115 80 313 314 335 303 325 354 33 19 77 103 90 88 99 89 68 50 65 76 86 94 104 117 128 140 150 171 194 212 221 217 218 226 229 230 225 229 238 233 232 234 225 212 212 215 211 210 213 216 222 228 232 236 237 238 241 245 247 244 240 241 245
261 282 319 310 265 293 58 334 288 69 24 325 264 227 211 184 43 116 125 117 129 174 239 103 111 206 300 297 270 328 347 18 25 52 122 133 108 124 148 103 62 72 74 74 77 75 89 113 139 161 183 201 220 226 215 221 238 240 243 240 239 255 254 243 240 234 223 215 212 212 213 214 214 219 226 234 241 245 247 248 248 249 248 245 245 247
245 318 334 7 100 23 37 318 289 61 72 276 246 213 230 101 48 229 127 129 178 147 9 17 112 127 268 264 295 351 325 53 83 130 259 173 134 150 147 121 105 91 82 79 75 63 52 49 78 194 229 237 242 232 201 206 236 245 257 263 257 267 271 259 246 240 235 227 223 223 223 222 223 229 235 240 245 249 252 252 251 249 248 248 248 248
193 246 285 333 64 29 217 214 233 86 113 244 237 225 287 271 216 224 72 285 227 98 49 68 109 99 268 268 322 13 233 188 157 211 227 184 169 155 124 112 93 80 81 85 86 93 108 139 176 217 274 286 290 285 261 302 277 272 283 301 315 293 279 274 262 252 245 238 234 233 232 232 233 238 244 249 251 249 247 248 250 249 247 247 248 248
240 211 229 165 77 241 228 212 190 132 228 257 272 318 330 334 347 36 121 248 357 84 145 187 140 118 238 276 294 64 219 236 225 229 236 229 196 122 98 84 69 63 69 75 82 109 122 144 161 186 288 309 328 352 28 36 21 330 327 342 348 336 301 283 275 266 253 244 242 242 240 239 240 243 248 252 255 249 245 246 248 248 249 251 252 251
264 257 238 186 171 204 234 231 206 212 240 306 360 4 357 351 359 16 52 134 64 51 184 190 159 119 170 264 245 201 217 203 194 209 286 348 24 56 68 65 61 56 58 53 36 35 38 42 64 62 9 352 10 33 41 44 40 23 5 355 348 342 323 290 278 274 261 249 247 248 247 245 246 249 252 253 254 252 249 250 250 250 253 255 257 257
308 300 265 240 183 175 267 294 298 307 334 9 13 26 0 332 358 11 354 45 69 347 255 171 105 84 107 241 234 232 228 162 155 162 135 104 73 71 68 63 65 66 69 57 27 12 360 2 25 37 25 12 17 25 26 32 39 38 31 17 3 352 339 315 289 276 271 263 256 253 254 259 262 261 261 261 258 256 255 256 260 260 258 256 255 253
315 270 243 271 228 168 131 323 321 342 18 28 1 22 15 326 353 358 340 35 74 80 308 110 81 73 40 267 222 211 182 110 114 133 134 120 102 91 85 81 80 70 67 53 21 354 346 355 8 18 19 12 13 17 16 21 37 47 44 36 27 15 0 345 325 297 281 276 270 267 267 267 266 263 265 266 262 260 261 263 264 265 264 260 254 247
309 290 263 44 310 134 115 125 306 320 16 58 51 70 96 96 24 321 308 51 90 143 170 64 72 79 328 321 20 108 99 103 105 109 125 121 112 113 106 96 89 68 59 46 16 345 325 335 3 14 15 8 7 15 20 20 30 45 51 52 47 38 23 4 345 323 304 294 285 280 277 273 265 254 258 262 261 262 264 264 263 263 265 264 258 251
283 314 293 152 201 174 144 173 175 178 137 139 170 150 134 148 139 237 249 129 139 178 257 6 62 123 193 14 53 96 96 92 96 100 104 102 103 110 99 92 95 79 63 50 33 5 325 331 4 18 12 5 5 17 31 33 34 39 46 51 47 44 40 20 355 331 311 300 290 281 275 275 273 260 254 255 258 263 266 264 262 262 264 265 264 259
122 297 268 240 204 173 190 223 162 114 47 227 175 100 38 211 141 127 110 126 134 130 349 1 64 138 128 64 40 81 87 76 80 83 80 75 66 70 69 64 76 71 59 50 42 30 6 13 29 22 6 6 7 14 28 38 41 37 36 41 42 42 45 34 2 325 304 300 292 284 277 273 272 266 256 252 255 260 262 262 262 264 269 272 271 265
55 305 283 323 3 191 213 233 58 48 273 275 35 58 254 189 124 107 52 40 65 94 44 26 100 101 84 68 19 62 80 73 76 76 71 69 63 61 54 42 47 52 51 47 43 36 25 27 29 21 18 20 22 25 28 35 41 43 45 51 52 47 44 38 7 312 299 308 301 293 289 282 274 265 260 258 258 261 262 263 265 270 274 274 272 266
136 315 288 341 45 328 254 61 39 31 71 63 0 265 262 55 89 107 104 27 35 88 5 19 116 143 125 122 347 60 81 76 76 81 77 71 71 69 59 49 50 54 54 48 45 42 33 23 12 10 25 36 42 41 37 40 45 50 56 64 67 56 38 20 0 327 313 314 308 300 295 290 283 273 268 266 265 266 266 266 268 271 274 273 267 260
123 56 297 329 56 338 342 50 31 6 34 76 262 245 75 59 9 28 98 101 67 103 286 352 49 172 170 184 287 85 99 100 91 89 85 75 72 76 69 62 56 55 58 49 40 35 33 27 12 6 17 30 40 42 42 46 49 52 57 62 65 59 41 20 357 335 324 317 306 298 293 287 280 273 270 267 268 268 264 265 269 272 271 272 266 255
94 105 290 322 355 335 6 48 49 346 360 33 22 10 50 120 158 85 123 135 123 136 168 23 354 274 221 209 159 138 138 125 109 96 94 89 83 84 80 75 68 63 62 54 44 26 23 27 23 20 20 24 35 43 46 50 52 52 48 50 55 56 49 36 7 339 324 313 303 297 294 285 271 264 264 263 265 266 266 266 268 270 270 270 269 259
45 92 190 311 337 10 10 26 119 72 26 30 20 7 358 346 22 70 42 94 117 134 148 138 249 261 252 225 153 148 144 128 118 109 108 105 96 88 82 82 76 67 59 48 43 29 22 30 35 37 36 34 37 43 46 48 51 52 47 43 44 44 45 38 19 359 327 305 294 285 287 291 284 277 273 268 264 262 265 268 267 270 272 271 273 269
27 92 113 326 359 41 286 264 122 109 121 112 72 17 333 333 73 78 354 308 102 122 152 154 192 259 258 208 155 148 139 132 125 116 113 115 110 103 92 85 74 68 65 54 47 29 15 29 42 44 42 42 40 39 42 43 43 45 46 41 35 30 26 22 20 8 341 315 293 280 290 314 321 314 297 284 279 272 268 269 269 269 272 273 276 275
115 96 83 7 340 156 279 293 29 81 97 102 96 123 114 110 99 94 277 275 37 79 135 122 141 258 256 204 168 154 142 135 126 120 121 125 122 118 112 99 84 80 79 77 74 43 24 30 40 45 45 47 45 41 41 44 42 44 45 40 34 26 13 11 17 13 1 346 320 309 317 323 318 310 296 284 283 282 278 279 282 278 275 277 279 278
57 69 60 336 306 314 319 328 359 22 45 58 343 353 73 309 138 130 193 206 131 193 137 85 107 252 265 245 163 126 124 126 126 126 124 125 122 117 119 121 123 125 129 116 91 48 45 47 42 39 40 45 47 41 40 43 45 50 53 48 39 28 9 3 10 12 7 356 345 346 348 338 317 301 298 294 287 285 287 293 298 295 287 283 282 280
35 79 75 45 358 348 346 348 351 350 13 56 283 286 246 257 276 69 71 83 67 234 156 126 203 249 264 243 106 91 108 120 136 140 130 130 130 122 122 131 143 149 146 114 80 41 37 41 34 33 37 43 42 36 35 39 43 53 60 57 46 32 12 355 356 2 1 352 352 360 2 356 344 328 321 320 310 297 295 298 297 294 291 286 284 283
99 139 103 102 100 24 332 309 299 302 319 321 288 283 265 260 270 296 78 90 224 237 139 136 186 238 259 165 127 124 124 120 131 140 130 129 132 131 128 124 130 131 119 107 89 46 15 18 29 43 49 50 43 35 33 37 40 49 60 59 50 36 18 359 353 358 2 358 356 1 9 13 0 346 339 337 333 326 319 314 304 294 289 284 283 284
99 109 128 138 149 179 192 222 243 255 305 294 287 286 278 271 259 215 120 158 196 155 76 202 164 149 179 182 163 165 147 130 136 139 135 137 134 135 135 131 136 137 130 130 88 27 7 10 61 71 62 52 43 36 32 34 39 45 57 65 59 46 27 6 355 355 1 3 1 359 4 14 9 359 355 350 347 345 340 335 326 309 294 285 283 284
91 28 287 144 159 195 190 221 281 333 322 296 314 310 295 294 293 251 230 218 167 116 7 256 158 145 177 194 178 176 159 143 146 142 144 152 144 138 144 146 159 185 206 204 175 164 178 184 172 107 73 49 35 28 23 23 30 35 43 61 65 53 39 18 1 356 356 359 3 360 357 2 6 4 2 359 356 353 348 342 333 320 307 296 290 289
104 42 339 40 18 288 7 9 358 9 358 356 360 348 342 10 46 73 342 195 137 127 175 196 157 150 176 190 184 178 162 153 161 156 148 149 145 143 147 153 169 194 204 193 181 182 184 195 195 144 88 42 27 22 15 11 12 17 23 35 46 41 35 25 10 3 358 355 358 360 356 352 357 1 1 359 358 354 350 346 341 334 325 314 304 301
102 29 352 37 24 351 358 4 19 29 22 18 10 2 33 59 66 71 67 78 92 102 136 144 131 129 179 190 176 159 147 143 140 123 119 136 147 153 157 165 185 202 201 195 193 188 186 202 199 167 117 45 29 16 4 2 3 2 2 8 16 18 22 21 11 2 359 355 354 356 356 351 351 356 358 356 354 350 346 344 343 342 338 331 321 314
83 335 320 59 41 341 336 350 12 40 48 35 16 10 60 73 60 57 69 76 79 83 97 105 96 58 340 138 119 108 108 104 91 77 82 120 147 157 168 185 201 209 211 213 211 204 214 231 209 158 107 49 17 355 352 355 358 358 357 357 0 2 5 9 7 0 355 354 352 351 351 351 351 352 350 350 349 345 340 338 338 339 339 338 335 326
73 287 324 60 50 311 311 351 8 39 58 43 17 1 39 71 64 48 42 44 83 108 99 88 96 86 328 82 92 85 87 88 83 80 70 67 114 153 170 189 199 202 213 223 212 208 249 284 335 92 79 14 340 341 349 350 348 355 360 354 352 355 356 356 357 356 353 351 350 349 349 348 347 346 343 343 344 341 337 332 330 333 334 333 335 334
92 100 58 69 65 290 294 355 21 40 50 31 353 343 30 72 73 61 42 27 40 99 113 116 150 209 34 85 88 75 76 84 79 71 68 48 11 318 200 202 202 201 218 232 163 162 213 23 57 69 353 326 332 340 348 353 355 2 5 357 351 352 352 352 352 350 348 347 348 350 352 348 343 341 339 338 339 339 336 328 322 325 328 328 328 327
90 99 128 127 109 272 288 359 38 55 62 16 331 9 71 83 79 71 58 40 36 57 94 110 98 72 65 85 98 99 97 103 89 51 62 77 0 335 336 319 292 327 45 65 87 106 102 87 75 9 336 342 356 6 14 20 21 13 4 357 351 348 349 351 350 347 345 346 347 349 350 346 342 339 336 333 334 334 334 329 321 318 319 320 320 316
91 95 122 125 121 237 307 36 52 80 89 25 358 54 80 88 86 77 57 37 41 66 80 78 71 71 76 81 98 113 110 94 68 38 22 26 23 19 29 29 14 26 62 83 90 101 94 58 3 351 7 30 44 44 39 31 19 6 358 354 350 350 352 351 347 344 343 342 342 343 344 343 341 338 335 333 331 329 329 328 324 319 316 314 312 307
121 115 107 110 138 198 30 60 122 170 140 47 56 75 70 70 80 76 52 23 18 50 79 78 69 65 70 78 89 95 89 63 48 30 10 19 41 49 46 33 21 49 106 116 106 112 89 11 9 32 55 62 57 42 29 19 9 0 355 352 351 352 353 348 342 340 339 337 337 338 339 339 338 337 336 334 330 327 326 324 322 321 317 312 309 304
123 119 88 35 136 154 135 100 122 132 31 14 3 351 18 29 66 92 80 29 11 37 64 64 48 33 32 46 56 60 63 57 39 11 360 13 40 48 37 24 19 45 127 138 121 94 43 35 53 71 69 56 40 25 16 10 3 358 354 351 352 351 347 343 338 335 334 333 333 334 335 336 335 333 334 333 329 326 324 322 320 320 318 315 311 305
104 124 135 132 94 88 99 86 70 72 359 312 297 304 5 90 119 104 90 50 1 30 64 68 56 41 33 36 29 26 49 54 30 348 344 351 4 23 31 32 29 34 66 99 58 41 45 52 60 62 49 35 24 12 6 360 356 356 355 352 351 347 342 338 335 333 330 329 330 331 332 332 332 329 329 328 327 325 323 321 319 318 317 314 310 305
56 72 103 100 46 33 84 105 111 137 214 273 293 312 329 237 164 104 77 47 344 360 49 72 68 55 55 52 38 39 58 49 356 324 326 333 349 14 28 35 34 32 35 42 43 45 46 44 40 34 27 21 14 5 0 357 357 359 357 353 348 341 336 334 331 328 326 325 327 329 329 329 328 326 325 324 323 322 321 319 317 316 314 312 310 307
36 36 59 67 25 13 83 106 108 133 222 283 302 318 321 312 101 84 70 16 339 355 31 63 65 53 55 59 47 46 61 50 324 300 303 329 358 16 25 28 29 30 35 41 41 38 33 27 22 18 12 6 4 7 8 4 1 359 355 348 339 331 329 329 327 326 324 325 326 326 326 326 326 324 323 322 321 320 318 317 316 315 314 312 311 309
23 32 62 85 66 46 86 107 126 168 248 291 316 331 333 357 61 77 130 224 342 25 43 59 66 55 46 58 67 53 339 263 266 288 317 352 9 12 11 10 15 26 32 30 25 20 18 16 12 7 4 6 11 15 11 2 356 353 347 337 328 325 325 324 324 325 325 325 325 323 323 324 324 323 322 320 320 318 316 317 317 316 314 313 312 309
17 22 27 71 69 57 96 107 98 344 301 293 313 349 4 42 100 133 195 206 91 70 63 54 56 53 39 45 60 37 339 344 359 343 347 3 9 8 11 13 18 23 19 13 11 11 11 9 8 9 12 14 12 5 0 355 350 347 340 329 325 326 325 325 327 328 327 325 322 321 321 322 323 322 321 321 320 318 316 318 319 317 316 315 313 310
88 66 359 13 53 66 69 56 57 297 311 317 326 0 16 71 158 184 182 121 79 82 76 58 45 41 38 23 10 9 5 3 2 350 347 352 356 9 22 25 25 21 15 13 13 13 11 9 8 11 12 6 360 356 354 349 344 342 337 330 330 332 331 330 332 330 327 325 323 323 324 325 325 324 323 323 322 319 318 320 320 318 316 315 312 309
61 123 176 311 11 79 84 62 133 221 320 4 54 86 50 79 144 162 141 86 50 45 61 64 35 19 36 28 357 359 4 352 345 342 340 339 337 347 9 24 28 24 22 22 18 12 9 7 5 5 0 353 351 352 351 347 344 342 340 336 337 338 337 335 334 332 331 330 328 327 328 328 327 326 325 325 323 320 318 320 320 316 313 312 310 305
346 118 120 85 50 79 101 119 157 140 39 46 72 95 95 87 105 134 126 106 87 78 91 88 38 358 20 43 22 5 346 325 326 328 319 310 316 343 9 27 31 25 20 20 15 9 9 11 6 358 352 351 352 353 354 355 353 347 343 341 342 342 340 338 338 337 336 334 331 329 329 329 328 327 326 326 324 320 317 318 318 315 312 311 307 302
0 92 102 94 88 83 70 61 91 94 80 76 82 90 100 100 97 100 99 93 89 83 70 63 38 7 21 48 38 358 320 313 325 328 321 323 350 12 26 29 21 13 8 6 5 5 7 9 5 358 355 356 357 356 358 2 359 351 347 346 346 345 344 343 342 340 337 333 331 331 331 329 327 326 325 325 324 322 319 317 315 313 311 309 304 298
9 56 73 82 98 91 72 48 86 96 97 90 83 75 72 67 56 63 79 86 82 65 42 28 32 29 28 31 16 339 327 344 360 354 352 11 24 24 26 21 9 2 357 355 357 360 360 359 358 356 356 360 4 5 3 0 357 354 353 352 351 349 346 344 341 336 333 331 330 331 331 328 324 323 323 324 326 324 321 319 316 312 310 308 303 298
4 53 68 71 70 85 120 150 104 81 75 67 72 74 65 56 46 41 57 73 58 30 12 12 35 35 2 350 354 359 3 15 24 19 15 20 23 21 18 10 0 357 357 358 359 358 358 359 359 0 2 5 8 6 359 356 358 360 360 359 357 353 349 345 340 333 330 330 331 330 328 326 323 322 323 324 325 324 321 319 317 313 308 306 302 297
326 39 66 87 76 69 89 140 73 68 55 34 47 69 76 77 62 40 34 41 34 19 6 359 1 4 6 13 29 42 38 19 4 7 18 17 15 16 10 1 358 360 1 360 359 2 10 13 13 14 13 9 6 360 354 354 2 6 5 1 356 354 350 344 340 336 332 329 328 327 326 325 324 324 324 324 324 322 320 319 317 312 308 307 305 298
42 59 60 84 88 84 245 259 135 104 94 53 69 74 69 78 76 56 34 24 18 9 3 2 8 21 36 50 55 52 44 11 357 1 17 21 13 8 2 358 357 359 0 1 4 12 21 23 21 19 14 9 6 2 358 2 6 5 2 357 353 350 346 341 339 338 335 330 326 325 325 325 325 326 326 326 324 323 323 323 323 319 312 310 311 308
73 106 125 121 125 159 181 173 140 123 133 168 123 81 63 59 63 50 25 12 8 17 36 47 45 41 40 42 43 43 39 17 7 6 10 10 4 1 1 358 356 357 2 10 14 17 21 23 21 17 13 12 11 6 4 8 7 2 358 355 352 350 346 341 339 339 337 331 325 323 326 329 329 329 329 328 327 327 326 326 327 327 324 319 317 316